Location: Bratislava
(48.1500°N, 17.1170°E)
Time: 11:10:31
(UTC+01:00)

N. Korean satellite - Pass Details

Date: 26 January 2019
Orbit: 456 x 510 km, 97.2° (Epoch: 20 February)

Event Time Altitude Azimuth Distance (km) Brightness Sun altitude
Rises 04:57:28 0° 32° (NNE) 2,611 10.7 -24.9°
Reaches altitude 10° 05:00:43 10° 63° (ENE) 1,708 10.1 -24.3°
Maximum altitude 05:02:17 12° 88° (E) 1,560 10.1 -24.1°
Drops below altitude 10° 05:03:49 10° 114° (ESE) 1,689 10.2 -23.8°
Sets 05:06:59 0° 145° (SE) 2,549 10.7 -23.3°
